Location: D�pe
(52.6057°N, 8.1808°E)
Time: 07:30:19
(UTC+00:00)

ATLAS 2AS CENTAUR R/B - Pass Details

Date: 29 October 2020
Orbit: 939 x 1273 km, 63.7° (Epoch: 23 November)

Event Time Altitude Azimuth Distance (km) Brightness Sun altitude
Rises 16:20:40 0° 298° (WNW) 4,223 6.5 -3.5°
Reaches altitude 10° 16:23:46 10° 306° (NW) 3,230 5.8 -3.9°
Maximum altitude 16:31:02 40° 15° (NNE) 1,703 3.6 -5.0°
Drops below altitude 10° 16:37:51 10° 83° (E) 3,030 4.4 -6.0°
Enters shadow 16:38:50 - 87° (E) 3,339 4.6 -6.1°
